Flag for U.S.A. Weather past 2 weeks in San Francisco, California, U.S.A.

Now
60 °F

Partly cloudy.


Feels Like: 60 °F
Forecast: 59 / 69 °F
Wind: 7 mph from Northwest

Location: San Francisco International Airport

Current Time: Jul 2, 2015 at 2:10:31 AM

Latest Report: Jul 2, 2015 at 12:56 AM


Visibility: 10 mi

Pressure: 29.91 "Hg

Humidity: 86%

Dew point: 56 °F

Location of San FranciscoLocation

Historic Weather in San Francisco — Graph

°F

San Francisco temperature yesterday

Maximum temperature yesterday: 73 °F (at 11:56 AM)
Minimum temperature yesterday: 56 °F (at 2:56 AM)
Average temperature yesterday: 63 °F

Past Weeks' High & Low Weather Summary

 TemperatureHumidityPressure
High77 °F (Jun 30, 1:56 PM)93% (Jun 20, 6:56 AM)30.07 "Hg (Jun 20, 6:56 AM)
Low51 °F (Jun 19, 4:56 AM)44% (Jun 18, 5:56 PM)29.80 "Hg (Jun 30, 5:56 PM)
Average62 °F72%29.95 "Hg
* Reported Jun 17 3:56 AM — Jul 1 11:56 PM, San Francisco, Weather by CustomWeather, © 2015

Note: Actual official high and low records may vary slightly from our data, if they occured in-between our weather recording intervals... More about our weather records

Advertising

San Francisco weather history for previous 24 hours

 ConditionsComfort  
Time TempWeatherWind HumidityBarometerVisibility
11:56 PM
Wed, Jul 1
61 °FPassing clouds.13 mph83%29.90 "Hg10 mi
10:56 PM61 °FPassing clouds.13 mph83%29.91 "Hg10 mi
9:56 PM61 °FPartly cloudy.15 mph83%29.90 "Hg10 mi
8:56 PM63 °FBroken clouds.14 mph78%29.88 "Hg10 mi
7:56 PM62 °FBroken clouds.15 mph80%29.88 "Hg10 mi
6:56 PM62 °FPartly sunny.18 mph80%29.86 "Hg10 mi
5:56 PM64 °FPartly sunny.26 mph75%29.87 "Hg10 mi
4:56 PM70 °FBroken clouds.16 mph61%29.89 "Hg10 mi
3:56 PM70 °FBroken clouds.16 mph61%29.90 "Hg10 mi
2:56 PM72 °FBroken clouds.20 mph57%29.91 "Hg10 mi
1:56 PM69 °FPartly sunny.16 mph61%29.91 "Hg10 mi
12:56 PM70 °FPartly sunny.15 mph59%29.92 "Hg10 mi
11:56 AM73 °FPartly sunny.13 mph55%29.92 "Hg10 mi
10:56 AM70 °FPartly sunny.7 mph66%29.92 "Hg10 mi
9:56 AM68 °FPartly sunny.7 mph65%29.90 "Hg10 mi
8:56 AM65 °FPartly sunny.5 mph70%29.88 "Hg10 mi
7:56 AM61 °FScattered clouds.6 mph81%29.86 "Hg10 mi
6:56 AM58 °FScattered clouds.8 mph87%29.85 "Hg10 mi
5:56 AM56 °FPartly cloudy.7 mph93%29.84 "Hg10 mi
4:56 AM57 °FPassing clouds.8 mph90%29.82 "Hg10 mi
3:56 AM56 °FPassing clouds.9 mph93%29.83 "Hg10 mi
2:56 AM56 °FPassing clouds.13 mph93%29.84 "Hg10 mi
Weather by CustomWeather, © 2015

See weather overviewHow to use our weather pages